{"data":{"norad_id":69113,"intl_designator":"2026-108K","name":"QIANFAN-154","alt_names":[],"object_type":"PAYLOAD","status":"ACTIVE","operator":null,"country":"PRC","launch_date":"2026-05-17","launch_site_code":"WSC","launch_vehicle":null,"mission":null,"orbit_class":"UNKNOWN","rcs_meters":null,"size_class":null,"mass_kg":null,"dimensions":null,"purposes":[],"wikipedia_slug":null,"has_3d_model":false,"image_url":null,"decayed_at":null,"tle_current":{"epoch":"2026-09-20T04:23:11.380704Z","epoch_age_seconds":50585,"freshness":"FRESH","line1":"1 69113U 26108K   26263.18277061  .00000120  00000+0  16750-3 0  9992","line2":"2 69113  89.0197  12.5752 0002152 105.9145 254.2244 13.51026968 17263","mean_motion":13.51026968,"eccentricity":0.0002152,"inclination_deg":89.0197,"raan_deg":12.5752,"arg_perigee_deg":105.9145,"mean_anomaly_deg":254.2244,"bstar":0.0001675,"rev_number":1726,"period_min":106.58558519611,"perigee_km":1066.8799758814,"apogee_km":1070.0850009092,"semimajor_km":7446.6194883953,"source":"CELESTRAK","updated_at":"2026-09-20T09:00:24.681381Z"}}}